Flight Track Log - Related Links

Times and Time Zones

All times are in EDT time to prevent confusion due to time zone crossing. See the N209HW flight status page for this flight to view local times or setup timezone preferences in your user account.

Time Position Orientation Groundspeed Altitude Reporting Facility
EDT Latitude Longitude Course Direction KTS MPH feet Rate Location/Type
10:44PM 45.5594 -121.1183 238° Southwest 123 142 4,300  Level Seattle Center
10:45PM 45.5356 -121.0958 147° Southeast 114 131 5,400 893 Climbing Seattle Center
10:46PM 45.4989 -121.1300 213° Southwest 143 165 6,100 744 Climbing Seattle Center
10:47PM 45.4617 -121.1597 209° Southwest 149 171 6,900 787 Climbing Seattle Center
10:48PM 45.4231 -121.1856 205° Southwest 152 175 7,700 496 Climbing Seattle Center
10:49PM 45.4148 -121.2126 238° Southwest  Level FlightAware Approximate
10:49PM 45.3839 -121.2128 206° Southwest 156 180 7,900  Level Seattle Center
10:50PM 45.3367 -121.2419 203° Southwest 175 201 8,000 49 Climbing Seattle Center
10:51PM 45.2883 -121.2717 203° Southwest 186 214 8,000  Level Seattle Center
10:52PM 45.2278 -121.3067 202° Southwest 194 223 8,000  Level Seattle Center
10:53PM 45.2103 -121.3725 249° West 198 228 8,000  Level Seattle Center
10:54PM 45.1989 -121.4483 258° West 196 226 8,000  Level Seattle Center
10:55PM 45.1819 -121.5236 252° West 201 231 8,000  Level Seattle Center
10:56PM 45.1686 -121.5992 256° West 200 230 8,000 49 Level Seattle Center
10:57PM 45.1531 -121.6753 254° West 201 231 8,100 50 Climbing Seattle Center
10:58PM 45.1392 -121.7508 255° West 201 231 8,100 -65 Level Seattle Center
10:59PM 45.1294 -121.7964 253° West 194 223 8,000  Descending Seattle Center
10:59PM 45.1239 -121.8239 254° West 196 226 8,100  Climbing Seattle Center
11:00PM 45.1161 -121.8786 259° West 199 229 8,000  Descending Seattle Center
11:00PM 45.1150 -121.9022 266° West 202 232 8,100  Climbing Seattle Center
11:01PM 45.1097 -121.9611 263° West 198 228 8,000 -98 Descending Seattle Center
11:01PM 45.1100 -121.9814 271° West 203 234 8,000  Level Seattle Center
11:02PM 45.1153 -122.0200 281° West 181 208 8,000  Level Seattle Center
11:02PM 45.1331 -122.0425 318° Northwest 191 220 8,000  Level Seattle Center
11:03PM 45.1522 -122.0814 305° West 174 200 8,000  Level Seattle Center
11:03PM 45.1608 -122.0936 315° West 171 197 8,000 -590 Level Seattle Center
11:04PM 45.1817 -122.1397 303° West 185 213 7,400 -787 Descending Seattle Center
11:04PM 45.1900 -122.1558 306° West 183 211 7,200 -358 Descending Seattle Center
11:05PM 45.2153 -122.2086 304° West 196 226 7,000 -300 Descending Seattle Center
11:05PM 45.2219 -122.2186 313° West 193 222 6,900 -778 Descending Seattle Center
11:06PM 45.2417 -122.2622 303° West 181 208 6,300 -787 Descending Seattle Center
11:06PM 45.2492 -122.2767 306° West 185 213 6,100 -787 Descending Seattle Center
11:07PM 45.2717 -122.3236 304° West 196 226 5,500 -689 Descending Seattle Center
11:07PM 45.2794 -122.3400 304° West 191 220 5,400 -667 Descending Seattle Center
11:08PM 45.2983 -122.3803 304° West 189 217 4,900 -800 Descending Seattle Center
11:08PM 45.3100 -122.4011 309° West 192 221 4,600 -689 Descending Seattle Center
11:09PM 45.3297 -122.4381 307° West 183 211 4,200 -590 Descending Seattle Center
11:09PM 45.3414 -122.4561 313° West 186 214 4,000 -200 Descending Seattle Center
11:10PM 45.3658 -122.4878 318° Northwest 171 197 4,000  Level Seattle Center
11:10PM 45.3831 -122.5117 316° Northwest 175 201 4,000  Level Seattle Center
11:11PM 45.3956 -122.5372 305° West 155 178 4,000 -100 Level Seattle Center
11:11PM 45.4086 -122.5569 313° West 158 182 3,900 -492 Descending Seattle Center
11:12PM 45.4244 -122.5839 310° West 156 180 3,500 -787 Descending Seattle Center
11:12PM 45.4394 -122.6061 314° West 160 184 3,100 -500 Descending Seattle Center
11:13PM 45.4569 -122.6383 308° West 188 216 3,000 -98 Descending Seattle Center
11:13PM 45.4600 -122.6692 278° West 176 203 3,000  Level Seattle Center
11:14PM 45.4531 -122.7047 254° West 160 184 3,000  Level Seattle Center
11:14PM 45.4408 -122.7233 227° Southwest 162 186 3,000  Level Seattle Center
11:15PM 45.4183 -122.7372 203° Southwest 147 169 3,000  Level Seattle Center
11:15PM 45.4050 -122.7425 196° South 142 163 3,000 -67 Level Seattle Center
11:16PM 45.3692 -122.7517 190° South 139 160 2,900 -98 Descending Seattle Center
11:18PM 45.3158 -122.7597 186° South  Level Estimated
11:25PM 45.2471 -122.7701 186° South  Level Estimated

Login

Don't have an account? Register now (free) for customized features, flight alerts, and more!